GFSNIL_con_mucape_000.txt.gz
CAPE
0 0 0 0 0 0 0 0 0 0 0 0 0 19 44 121 1 131 169 30 42 34
6 1 26 43 48 0 0 0 0 0 0 0 15 0 41 65 223 100 66 52 124 114
17 25 41 10 0 0 0 0 0 0 0 0 0 0 0 17 52 0 34 88 121 122
248 130 23 6 0 0 0 0 72 121 79 12 0 33 151 139 192 101 120 167 134 116
445 417 200 57 29 5 16 12 0 0 0 0 1 47 65 139 227 240 110 166 85 72
559 552 166 97 46 14 8 5 0 0 0 0 3 18 47 46 121 260 154 122 108 105
469 187 97 75 39 19 20 15 1 0 0 55 0 13 57 90 262 353 232 115 83 177
464 376 75 31 31 24 40 39 12 4 88 52 45 46 273 317 148 110 79 113 174 157
431 381 115 92 91 128 120 220 52 79 162 159 30 211 83 67 41 41 15 13 16 34
468 277 213 229 267 279 251 216 172 123 235 38 160 95 154 89 65 56 22 7 4 19
515 352 340 342 339 323 336 370 440 468 256 278 161 195 303 177 90 60 32 8 18 0
573 619 455 410 368 418 425 514 640 471 61 151 284 227 252 121 38 35 6 0 9 1
543 525 408 396 461 489 609 746 643 478 295 234 205 167 77 74 16 10 11 11 10 0
646 604 481 553 732 846 906 842 648 414 57 124 160 85 65 26 25 23 11 4 3 0

GFSNIL_con_mucape_003.txt.gz
CAPE
1448 0 6 18 0 0 0 0 0 0 0 0 0 0 0 0 0 0 33 1 0 12
111 0 0 0 1 0 0 0 0 0 0 0 0 0 0 0 0 32 18 40 8 118
901 0 0 8 16 18 0 0 0 0 0 0 0 0 0 0 0 0 0 13 50 109
999 0 11 44 40 21 0 0 0 0 0 0 0 0 0 0 0 0 52 58 79 86
435 17 133 47 10 0 0 0 0 6 6 0 0 0 0 0 0 25 40 67 59 63
689 125 162 201 24 1 0 0 0 0 0 0 0 0 0 0 16 23 53 83 87 76
1033 270 463 459 256 31 22 8 0 0 0 0 0 0 0 0 19 58 106 109 114 72
1246 629 630 622 273 62 29 17 13 7 0 0 0 0 8 22 101 110 71 61 39 31
1343 620 791 434 100 22 26 31 13 35 24 0 0 17 18 85 70 47 31 18 0 0
951 487 664 318 210 22 44 49 44 74 106 3 2 13 16 28 26 50 42 27 18 0
1029 523 581 347 345 161 183 158 160 140 141 207 171 83 88 45 98 63 55 19 13 0
603 701 458 465 317 329 354 390 334 248 280 420 285 70 167 50 96 27 10 0 5 0
749 514 446 534 369 452 471 496 495 450 495 410 269 347 65 48 39 8 0 9 10 0
874 503 418 429 381 435 280 405 595 617 592 449 296 56 94 35 46 9 0 8 0 0

GFSNIL_con_mucape_006.txt.gz
CAPE
1964 1693 1749 237 312 353 0 0 0 11 1 0 0 0 0 0 0 0 0 17 0 0
2175 1898 2014 9 110 26 0 0 0 0 0 0 0 0 0 0 0 0 0 0 0 0
2060 2215 536 2 21 7 0 0 0 0 0 0 0 0 0 0 0 0 0 0 0 5
1921 1830 135 0 0 0 0 0 0 0 0 0 0 0 0 0 0 0 0 23 42 37
1649 1549 736 0 0 3 15 0 0 0 0 0 0 0 0 0 0 0 0 38 44 61
1453 1427 989 95 18 18 72 0 0 0 0 0 0 0 0 0 0 0 0 27 40 50
1578 1460 1108 398 59 80 13 0 0 0 0 0 0 0 0 0 0 0 0 24 49 29
1602 1521 1289 811 142 119 6 0 2 0 0 0 0 0 0 0 0 0 32 38 19 0
1407 1528 1391 621 294 266 199 141 38 23 1 1 0 0 0 0 5 26 33 10 0 0
1328 1371 1069 154 46 576 561 363 113 43 12 5 13 19 12 23 22 18 19 18 0 5
1415 1313 1058 292 10 369 475 104 64 86 97 37 94 139 113 144 66 45 32 25 15 11
1432 1415 899 280 18 121 508 250 147 153 156 119 152 195 243 85 98 30 26 24 0 0
1560 1515 965 557 99 65 359 444 237 256 134 160 206 273 124 122 38 38 0 0 0 0
1478 1605 1052 436 264 236 390 459 238 87 18 31 24 83 182 79 74 30 0 0 0 0

GFSNIL_con_mucape_009.txt.gz
CAPE
2770 2438 2095 1660 1002 906 934 637 265 314 359 530 173 86 220 219 223 261 217 480 496 114
2596 2406 2059 1342 1169 821 793 244 256 293 396 178 0 52 271 63 214 316 385 336 543 412
2462 2266 2119 1494 1411 487 438 230 293 326 182 50 4 18 264 91 83 195 186 214 443 511
2250 1925 1821 1702 1625 274 334 275 308 329 123 81 48 65 168 226 97 100 226 482 529 567
1902 1710 1526 1656 1281 356 26 210 205 242 194 147 103 145 270 228 0 153 306 311 526 539
1374 1117 1538 1462 862 136 205 168 78 174 228 187 199 360 438 327 109 232 334 380 479 467
1358 1381 1113 1282 946 169 150 336 215 153 277 272 324 290 169 19 155 291 289 399 485 556
1365 1028 1242 1313 1011 284 0 57 61 125 134 217 158 30 46 125 277 493 497 458 669 586
1572 1147 1120 1237 1031 453 198 2 11 1 87 253 65 0 0 36 360 549 634 617 584 426
1594 1152 1172 1231 1044 732 289 109 0 0 24 421 380 8 0 0 216 495 532 604 529 227
1571 1091 1053 1085 1111 874 336 222 12 43 227 643 455 67 23 35 181 415 547 474 325 212
1654 1151 1168 1223 1176 730 475 167 176 312 185 294 310 28 27 79 112 200 368 470 180 63
1627 1386 1321 1390 1400 715 287 38 115 199 417 368 929 84 126 111 133 108 145 184 30 0
1513 1433 1464 1461 1297 810 296 124 60 277 560 258 281 330 74 36 281 67 78 138 44 9

GFSNIL_con_mucape_012.txt.gz
CAPE
3509 3058 2758 2681 1019 701 304 338 659 1280 434 403 545 623 192 134 139 167 185 218 282 19
3489 3215 2816 2665 2269 1264 920 335 766 718 477 304 611 255 192 102 249 195 252 108 181 189
2961 3222 3134 2890 2516 2063 1078 865 744 664 291 401 329 164 302 134 177 197 28 2 18 150
2715 2845 3153 3158 2857 2293 1603 1191 942 881 359 493 216 199 330 215 39 114 118 37 180 356
2943 2890 2852 3601 2886 2746 1871 1007 1006 819 714 368 248 218 321 142 4 20 17 111 312 424
2770 2801 3175 3108 2759 1537 1297 788 780 718 666 447 320 242 280 332 224 126 83 219 364 412
2930 2897 2805 3006 2392 1090 775 464 156 420 273 257 499 467 269 319 358 153 107 334 485 514
3193 2853 2530 3017 1927 1003 820 529 202 98 166 147 414 209 731 485 180 153 329 426 515 587
3658 3174 2733 2972 1661 749 776 601 243 233 104 24 97 1 20 115 156 279 482 673 727 702
3413 3262 2992 2815 1746 1152 891 879 569 313 265 173 47 0 11 2 53 229 503 822 1040 928
3180 3059 2676 2170 1842 1436 1155 1192 924 507 326 136 64 36 27 0 128 343 718 1053 1059 1114
2957 2824 2516 1917 1166 1139 1112 1218 1040 525 303 187 344 92 122 92 380 400 1090 1107 746 694
3021 2835 2272 1996 1715 1294 1186 1172 899 584 311 412 481 259 252 124 217 1005 319 326 806 161
3172 2776 2426 2280 1541 1363 1378 1020 676 638 806 269 358 585 132 51 367 468 399 527 710 199

GFSNIL_con_mucape_015.txt.gz
CAPE
4641 2714 2328 2773 1582 771 633 856 2807 1666 1157 463 619 653 628 268 132 508 92 50 72 26
4617 4462 2654 3201 3465 1702 1741 703 1153 1645 1021 616 663 706 777 162 550 269 306 302 293 87
4284 4659 4431 4495 4161 2856 2343 1931 2078 1412 960 705 710 637 581 634 372 330 204 27 124 187
3711 3851 4517 4317 4078 3805 2606 2670 1907 1950 1123 668 926 373 429 512 293 409 545 298 95 156
4009 3961 3808 4364 4249 4189 3441 2714 2356 2032 1410 1112 850 777 660 459 226 198 133 101 646 306
3691 4136 3873 4406 4276 4181 3661 3144 1741 1717 1115 1202 597 401 496 867 888 770 576 513 914 730
3737 3765 3893 4382 4290 4343 4014 3034 1692 1906 1458 1008 351 426 276 586 597 945 776 857 960 859
3741 3980 4128 4119 4437 4395 3657 2711 1965 1760 1415 887 460 265 75 503 571 965 913 783 925 1014
4338 4131 4172 4404 4527 4369 3764 2785 2092 1564 1118 460 209 65 96 533 597 754 1009 1098 1257 1357
4818 4753 4784 4624 4542 4130 3722 2411 1792 1311 801 458 176 256 192 70 247 652 720 866 1444 1223
4835 5073 4932 4553 4347 3739 2676 1829 1703 1316 946 591 553 510 345 228 79 247 303 784 1371 1556
4739 4768 4779 4271 3805 2849 2164 1815 1270 1055 1192 894 861 811 471 171 22 110 297 530 1286 1518
4452 4606 4203 3782 3163 2827 2245 1552 1594 1255 1065 1026 776 471 233 11 330 729 579 627 1408 279
3816 4184 4108 3652 2891 2463 2136 1409 1144 1078 1017 927 913 773 241 69 175 160 165 169 1019 991

GFSNIL_con_mucape_021.txt.gz
CAPE
2261 1840 1477 1877 1362 1128 944 807 1111 1131 713 692 52 645 446 233 200 85 49 96 49 2
2032 2526 2633 2328 1950 1147 639 910 924 1196 737 597 121 189 519 217 53 294 86 11 35 12
2502 2203 2521 2702 1853 1772 1194 1546 877 1164 839 566 272 193 482 325 260 127 212 156 91 36
3035 2556 2335 2684 2031 1682 1491 1009 1101 1077 992 672 515 404 586 389 128 352 124 270 105 171
2866 2958 2496 2181 2291 2014 1507 1413 1266 1057 1155 845 569 528 639 405 191 95 397 177 149 46
2648 3003 2859 2375 2327 2613 1976 1741 1357 1409 1066 914 660 369 569 445 252 237 261 295 216 57
2902 2888 2960 2967 2387 2625 2858 2115 1677 1256 1143 903 684 445 515 490 367 174 149 221 373 224
2887 2969 2998 2963 3144 2582 2711 2887 2161 1674 1189 806 608 511 496 426 378 241 300 267 274 131
2654 2855 2838 2979 2971 3292 2860 2939 2827 2387 1889 1412 1043 778 653 448 381 307 371 358 354 323
2642 2700 2755 2809 2887 3149 3336 3122 3221 2944 2597 2122 1823 1576 1392 1232 849 395 377 368 458 504
2531 2556 2715 2837 2998 2956 3359 3261 3390 3340 3146 2840 2458 2239 2087 1795 1194 660 374 585 714 577
2301 2546 2606 2896 2881 3137 3058 3365 3424 3408 3293 3112 2775 2461 2198 1640 1148 1323 904 356 365 295
2131 2378 2761 2940 3027 3135 3297 3542 3580 3452 3298 3455 2843 2288 1794 1107 811 682 777 517 158 267
2725 2808 3120 3142 3286 3621 3700 3681 3632 3508 3436 3004 2323 1915 1387 1124 675 345 202 249 224 140

GFSNIL_con_mucape_024.txt.gz
CAPE
1219 1080 1094 1253 1117 1297 1299 1352 924 1392 1207 995 670 359 78 35 29 20 6 46 15 10
1561 1377 1366 1516 1349 1451 1292 1114 937 1245 1113 799 508 224 128 110 89 81 19 12 44 15
1317 1722 1744 1673 1475 1371 1229 1007 788 943 714 524 500 277 229 180 183 86 159 54 14 13
1639 1340 1722 1921 1887 1556 1370 1157 805 751 598 533 490 380 328 317 264 214 33 140 80 30
1939 1830 1633 1779 2167 2222 1720 1383 1203 959 764 675 602 521 380 353 346 292 75 26 172 170
2350 2225 1901 1671 1752 2201 2310 1515 1433 1194 834 814 745 623 495 310 279 330 122 156 101 83
2367 2610 2349 2025 1789 1829 2193 2038 1541 1463 1301 936 759 709 623 447 286 337 251 54 167 196
2183 2425 2657 2435 2119 1926 2137 2115 1960 1493 1398 1285 1140 985 793 593 398 338 340 166 181 217
2536 2401 2441 2642 2581 2317 2064 2442 2195 2012 1717 1551 1506 1369 1113 888 711 639 504 298 240 172
2703 2686 2650 2608 2695 2797 2590 2217 2637 2721 2670 2398 2138 1953 1713 1463 1298 1160 1061 885 497 335
2721 2672 2714 2775 2761 2727 2905 2799 2532 2485 2624 2701 2620 2405 2196 2060 2024 1710 1354 1380 990 520
2699 2592 2659 2693 2723 2732 2831 2981 2906 2880 2838 2741 2699 2785 2775 2575 2284 2372 1583 1379 930 454
2566 2521 2512 2619 2587 2660 2736 2953 2971 3048 3123 3192 3222 3279 3243 2972 2653 2065 1264 799 648 426
2476 2478 2472 2499 2641 2666 2751 2847 2965 3027 3195 3209 3490 3490 3315 2982 2459 1683 1011 795 248 65

GFSNIL_con_mucape_027.txt.gz
CAPE
1006 988 870 900 938 729 1052 1352 1309 1245 1234 1131 831 628 422 54 0 0 0 2 3 5
1031 1027 952 1050 973 679 929 1135 1250 1323 1304 1225 924 772 490 125 24 18 0 0 8 4
1029 1047 1090 1048 934 849 1020 1110 1085 1326 1195 1186 1038 888 515 165 39 27 3 0 0 0
1089 1096 1082 1051 929 1079 1330 1259 1333 1187 933 1166 1128 845 492 147 65 62 49 27 0 0
1024 1177 1305 1177 1118 1198 1441 1301 1317 1142 901 915 995 671 456 296 175 93 68 6 40 45
1105 1087 1123 1340 1471 1491 1575 1607 1242 1249 1028 768 704 585 587 557 498 307 164 146 0 22
1393 1394 1290 1170 1241 1469 1472 1635 1619 1323 1266 1197 1157 766 685 701 637 548 372 227 110 33
1547 1593 1553 1463 1365 1346 1479 1499 1832 1891 1613 1355 1376 1174 906 785 736 667 557 452 372 262
1777 1857 1848 1775 1632 1525 1430 1489 1500 1723 1974 1734 1478 1449 1449 1244 1066 1039 943 816 650 476
1736 1843 2069 2119 1993 1822 1697 1595 1580 1476 1594 1838 1778 1645 1489 1334 1297 1399 1375 1246 994 808
1948 1906 1907 2065 2210 2126 1951 1839 1876 1759 1649 1696 1848 1857 1704 1652 1872 2032 1960 1567 1415 1016
2282 2196 2116 2080 2138 2217 2214 2069 1966 1920 1840 1854 1904 2061 2320 2458 2513 2422 1992 1982 1509 1248
2364 2320 2288 2275 2251 2256 2319 2422 2193 2138 2152 2091 2118 2265 2470 2593 2629 2781 2804 2320 1695 1210
2428 2409 2338 2319 2282 2359 2389 2459 2686 2406 2390 2455 2533 2606 2750 2931 3135 3149 2832 2217 1582 892

GFSNIL_con_mucape_030.txt.gz
CAPE
552 555 515 547 598 553 612 705 931 1189 1280 1305 1043 722 574 412 150 0 0 0 0 0
501 600 548 619 730 657 646 678 757 1012 1332 1345 1136 848 574 417 171 9 1 0 0 0
592 663 626 667 818 830 770 841 782 1123 1196 1254 1212 1012 755 638 366 86 24 1 0 0
743 753 718 743 826 884 867 950 711 996 1092 1194 1304 1148 940 777 531 173 4 0 0 0
824 801 777 776 830 874 957 956 672 905 1095 1064 1308 1146 1074 985 682 229 5 7 0 0
923 848 842 836 831 909 996 987 866 1194 1177 1322 1269 1063 1074 1097 767 352 270 130 8 0
1009 977 1019 1020 981 927 978 1028 819 1162 1238 1326 1264 1008 987 992 850 588 561 493 313 93
900 932 984 1068 1158 1190 1115 1081 1063 953 1401 1380 1292 1188 978 887 885 696 750 716 624 533
1067 1067 1080 1059 1032 1123 1280 1259 1203 1074 1191 1544 1272 1285 1361 1258 1292 968 1037 896 883 960
1236 1308 1353 1365 1271 1141 1171 1313 1287 1274 1099 1142 1463 1394 1394 1397 1433 1443 1503 1382 1259 1287
1503 1490 1536 1580 1529 1424 1303 1282 1378 1373 1396 1243 1267 1571 1761 1705 1653 1652 1651 1507 1527 1796
1730 1716 1732 1822 1853 1759 1588 1442 1466 1426 1508 1558 1464 1366 1529 1714 1775 1817 1863 1702 2114 1975
1797 1714 1682 1810 1990 2053 1985 1835 1685 1730 1662 1695 1704 1605 1447 1515 1719 1911 1901 2155 2520 2232
1977 1949 1817 1792 1859 1951 2153 2155 1954 1868 1816 1819 1892 1932 1831 1657 1719 1887 2265 2589 2676 2544

GFSNIL_con_mucape_033.txt.gz
CAPE
2137 1641 1828 1864 1388 1440 1376 1639 2262 2527 2477 2434 2212 1904 1581 1337 836 523 506 398 311 199
1997 2034 1885 2197 2273 1526 2175 1537 2011 2373 2467 2425 2177 1738 1482 1176 879 473 504 380 398 241
1760 1976 2062 2246 2224 2161 2212 2055 1871 2096 2187 2336 2255 1807 1427 1059 883 543 326 241 401 360
1737 1849 2021 2105 2207 2283 2380 2095 2321 2180 2158 2297 2264 1903 1596 1301 921 627 565 355 416 478
1943 1959 2021 2121 2209 2316 2400 2279 2686 2450 2198 2310 2219 1974 1740 1477 984 831 733 634 480 430
1982 2077 2140 2261 2290 2331 2415 2461 1981 2242 2344 2139 2174 2056 1742 1783 1388 1062 928 775 630 563
2179 2174 2182 2333 2357 2347 2450 2488 2501 2453 2403 2273 2072 2053 1847 1790 1636 1404 1182 956 745 669
2293 2390 2352 2402 2421 2406 2447 2426 2480 2515 2508 2231 2066 1850 1952 1842 1728 1589 1410 1134 877 731
2405 2508 2438 2444 2449 2507 2490 2523 2523 2465 2491 2447 1998 1372 1175 1541 1932 1889 1759 1651 1204 1227
2302 2499 2534 2536 2598 2615 2600 2584 2568 2399 2441 2435 2424 1223 1160 1244 1920 1800 2035 2059 1676 1281
2212 2370 2402 2474 2514 2672 2701 2762 2758 2558 2456 2490 2421 1322 1106 1353 1577 2188 2146 1848 1893 1699
2026 2059 2440 2497 2535 2541 2567 2670 2809 2788 2778 2633 2650 1327 1260 1209 1368 2040 1846 1711 1564 1617
2407 2464 2603 2696 2727 2765 2729 2675 2588 2821 2957 2353 2755 1603 1367 1353 1580 1989 1738 1935 1729 1707
2830 2791 2771 2976 3018 3064 2828 2783 2711 2878 2983 2905 2503 2659 1481 1441 1732 2038 1871 1851 1603 1648

GFSNIL_con_mucape_036.txt.gz
CAPE
3969 2357 2270 2866 2100 1932 1558 1633 1756 2203 2552 2853 2869 3120 3109 2689 2200 1799 1741 1158 549 117
3713 3503 2461 3172 3429 2302 2999 1789 1883 2104 2786 2839 2832 3126 3059 2460 2108 1596 1833 1238 807 306
3106 3752 3632 3737 3725 3344 2940 2994 2264 2324 2621 2768 2826 3051 3054 2506 2211 1878 1518 846 596 596
2858 2913 3191 3492 3773 3840 3234 3654 3013 3097 2547 2445 2625 2952 3123 2813 2219 2029 1811 1040 644 968
3107 3231 3003 3356 3496 3955 3839 3549 3551 3289 3047 2764 2499 2872 3143 2891 2226 2153 1968 1600 1086 885
2681 2778 3342 3721 3588 3725 3905 4026 2811 3334 3979 3141 2825 3141 3140 2918 2753 2414 2172 1856 1591 1208
3113 3265 3287 3587 3712 3792 3949 4064 3886 3941 4077 3663 3116 2876 2960 2848 2821 2784 2419 2187 1856 1508
3338 3573 3566 3603 3831 3849 3990 3917 4033 4079 4075 4083 3164 2380 3445 3390 2880 3192 2812 2439 2177 1759
3580 3804 3786 3821 3947 4116 4075 4023 4122 4080 4136 4066 3048 1777 1606 2706 3248 3512 3288 3301 2743 2425
3840 3946 4072 4067 4156 4165 4118 4112 4183 4141 4188 4183 4087 1996 1376 1632 2898 3297 3650 3704 2923 2319
3714 3959 4106 4202 4133 4185 4206 4106 4166 4177 4237 4221 4090 2611 1692 1433 2832 3519 3842 3579 3356 3411
3663 3345 3581 4190 4235 3907 3630 3882 3796 3602 4297 4312 4162 2608 2215 1579 2431 2696 3806 3753 3452 3605
3605 3758 3803 4166 4267 4126 3648 3559 3220 3372 4215 3754 4292 2888 2240 1913 2304 2610 2479 3667 3970 2165
3801 4035 4031 4360 4279 4053 3934 3508 3975 4075 4145 4291 3986 4000 2442 1937 2573 2666 2861 2630 3029 2969

GFSNIL_con_mucape_042.txt.gz
CAPE
2940 2833 1641 2592 1732 1281 1730 1898 2998 2677 3271 3000 3276 3288 3871 3898 3326 3406 2823 3152 2211 1539
2495 3152 2289 1855 2735 2677 2099 2552 3632 2957 3179 3008 3373 3122 3840 3104 3534 3657 2961 2606 2875 2000
3274 2928 2760 2410 2809 2339 3304 2694 4148 3391 3187 3372 3395 3562 3547 3485 3448 3331 3125 2398 2387 2130
3565 3267 2972 2684 2913 3488 2859 4182 3152 3883 3436 3395 3351 3352 3774 3062 3066 3499 2891 2607 2482 2120
3600 3834 3562 3055 2945 3210 3788 3239 4178 3766 3488 3312 3224 3452 3317 3301 2368 3213 2974 2435 2474 2376
3788 3779 3832 3694 3145 3264 3188 3812 3138 3932 3867 3240 3304 3304 3461 3227 2952 2166 3182 2945 2323 2112
4005 3917 3908 3856 3924 3372 3617 3243 3698 3540 3501 3703 3405 3360 3275 3392 3481 3115 2663 3268 2888 2403
3640 3998 3909 3912 3998 4079 3725 3803 3531 3664 3858 3619 3650 3483 3337 3259 3394 3437 3059 2951 3138 2814
3523 3648 3995 3870 3862 4007 4165 4014 4123 3917 3615 3820 3683 3389 3150 3039 3306 3416 3409 3188 3072 2977
3672 3868 4002 4030 4024 3938 4126 4152 4174 4180 4054 3743 3819 3485 3282 2975 3230 3293 3404 3402 3253 3099
4110 3949 4121 4145 4106 4164 4088 4218 4173 4213 4185 4024 3829 3587 3458 3140 2795 3132 3226 3338 3378 3247
4176 4076 4159 4243 4182 4177 4253 4214 4324 4266 4266 4247 4115 3746 3582 3428 3016 2800 2971 3236 3267 3258
3549 4190 4209 4264 4341 4351 4346 4349 4270 4268 4285 4147 4246 3958 3818 3548 3288 2734 2689 2848 3075 3086
4295 3871 4287 4360 4480 4443 4402 4387 4386 4360 4367 4380 4222 4211 4012 3787 3522 3255 2820 2678 2680 2757

GFSNIL_con_mucape_045.txt.gz
CAPE
1816 1119 810 963 900 209 1245 1648 1476 2035 2326 1801 1882 2022 2150 1995 2278 1763 1089 1630 790 157
954 2157 1179 447 1020 1622 800 1323 1659 1853 2467 2045 1934 1870 1841 2629 2083 2350 1825 1290 1628 1035
1266 949 2196 1383 632 1566 1540 774 1753 1943 1912 2058 2038 2003 1939 2493 2543 1999 2283 1769 1463 1567
1954 1545 1349 2166 1279 1279 1732 1944 1427 2191 1950 2133 2208 2323 1985 2119 2538 2540 2319 2050 1709 1516
2334 2292 1613 1579 2214 1081 1859 1716 2403 2553 2362 2537 2267 2234 2599 2523 2357 2320 2414 2292 1890 1799
2295 2518 2427 1897 1540 2250 1332 2245 1943 2611 2651 2469 2503 2615 2349 2525 2453 2097 2224 2297 2065 1748
2642 2591 2628 2536 2237 1484 2182 1984 2577 2187 2650 2553 2449 2360 2511 2405 2520 2466 1864 2375 2499 2225
2894 2750 2720 2714 2852 2662 1938 2376 2212 2518 2427 2838 2546 2451 2381 2638 2578 2493 2314 1732 2436 2547
2999 3077 2919 3003 2913 3063 2976 2363 2696 2586 2458 2610 2919 2720 2637 2497 2612 2696 2644 2516 2020 2433
2977 3100 3170 3187 3247 3193 3251 3279 2902 2894 2895 2698 2789 2974 2995 2880 2664 2619 2779 2802 2727 2406
2779 2967 3090 3195 3243 3267 3272 3375 3520 3308 3190 3121 2973 2957 3067 3195 3087 2792 2672 2825 2860 2803
2705 2880 3029 3097 3282 3289 3266 3267 3350 3564 3489 3438 3385 3316 3157 3279 3250 3172 2942 2854 2916 2967
2966 3133 3100 3278 3303 3421 3388 3380 3370 3430 3557 3492 3523 3547 3531 3368 3390 3046 2981 2951 2924 2993
3344 3370 3476 3347 3540 3556 3592 3565 3590 3582 3584 3702 3642 3658 3718 3664 3626 3316 3056 2906 2796 2777